Location: *
(42.0175°N, 9.4056°E)
Time: 07:04:46
(UTC+00:00)

ADEOS Rocket - Pass Details

Date: 25 August 2019
Orbit: 859 x 1307 km, 98.7° (Epoch: 16 September)

Event Time Altitude Azimuth Distance (km) Brightness Sun altitude
Rises 18:45:39 0° 22° (NNE) 3,665 6.0 -7.4°
Reaches altitude 10° 18:48:15 10° 32° (NNE) 2,773 5.3 -7.9°
Maximum altitude 18:53:57 36° 97° (E) 1,644 3.7 -8.9°
Drops below altitude 10° 19:00:10 10° 162° (SSE) 3,041 5.2 -9.9°
Sets 19:03:08 0° 170° (S) 4,064 5.9 -10.4°
